This is the latest recevied weather packets stored in our database for station/object KJ5JYX. If no packets are shown the sender has not sent any weather packets the latest 10 day(s).
| Time | Temp. | Humidity | Pressure | Rain* | Wind** | Luminosity | Snow |
|---|---|---|---|---|---|---|---|
| 1777424711 | 28.33° C | 80% | 1010.8 hPa | 0 mm | - | 3 W/m² | - |
| 1777424406 | 28.33° C | 80% | 1010.7 hPa | 0 mm | - | 4 W/m² | - |
| 1777424103 | 28.89° C | 80% | 1010.7 hPa | 0 mm | - | 9 W/m² | - |
| 1777423800 | 28.89° C | 79% | 1010.3 hPa | 0 mm | - | 10 W/m² | - |
| 1777423496 | 28.89° C | 79% | 1010.5 hPa | 0 mm | - | 11 W/m² | - |
| 1777423191 | 28.89° C | 79% | 1010.4 hPa | 0 mm | - | 15 W/m² | - |
| 1777422890 | 28.89° C | 78% | 1010.5 hPa | 0 mm | - | 18 W/m² | - |
| 1777422587 | 28.89° C | 79% | 1010.4 hPa | 0 mm | - | 24 W/m² | - |
| 1777422283 | 29.44° C | 78% | 1010.3 hPa | 0 mm | - | 29 W/m² | - |
| 1777421983 | 29.44° C | 79% | 1010.5 hPa | 0 mm | - | 33 W/m² | - |
| 1777421678 | 29.44° C | 78% | 1010.4 hPa | 0 mm | - | 38 W/m² | - |
| 1777421372 | 29.44° C | 78% | 1010.3 hPa | 0 mm | - | 37 W/m² | - |
| 1777421070 | 29.44° C | 78% | 1010.3 hPa | 0 mm | - | 41 W/m² | - |
| 1777420766 | 29.44° C | 78% | 1010.4 hPa | 0 mm | - | 43 W/m² | - |
| 1777420462 | 29.44° C | 77% | 1010.4 hPa | 0 mm | - | 48 W/m² | - |
| 1777420160 | 29.44° C | 78% | 1010.4 hPa | 0 mm | - | 48 W/m² | - |
| 1777419855 | 30° C | 77% | 1010.2 hPa | 0 mm | - | 50 W/m² | - |
| 1777419553 | 30° C | 77% | 1010.3 hPa | 0 mm | - | 63 W/m² | - |
| 1777419251 | 30° C | 77% | 1010.2 hPa | 0 mm | - | 77 W/m² | - |
| 1777418949 | 30° C | 76% | 1010.2 hPa | 0 mm | - | 73 W/m² | - |
| 1777418643 | 30° C | 77% | 1010.3 hPa | 0 mm | - | 83 W/m² | - |
| 1777418340 | 30° C | 76% | 1010.3 hPa | 0 mm | - | 99 W/m² | - |
| 1777418036 | 30° C | 76% | 1010.3 hPa | 0 mm | - | 82 W/m² | - |
| 1777417732 | 30° C | 75% | 1010.3 hPa | 0 mm | - | 121 W/m² | - |
| 1777417427 | 30.56° C | 75% | 1010.1 hPa | 0 mm | - | 87 W/m² | - |
* Rain latest hour (hover to see other rain measurements)
** Current wind speed in m/s (hover to see current wind gust speed)